Regional Weather Roundup
Issued by NWS

Home | Current Version | Previous Version | Text Only | Print | Product List | Glossary Off
Versions: 1 2 3 4 5 6 7 8 9 10 11 12 13 14 15 16 17 18 19 20 21 22 23 24 25 26 27 28 29 30 31 32 33 34 35 36 37 38 39 40 41 42 43 44 45 46 47 48 49 50

000
ASUS43 KIND 061659
RWRIN

WEATHER ROUNDUP FOR INDIANA
NATIONAL WEATHER SERVICE INDIANAPOLIS IN
100 PM EDT WED MAY 06 2015

NOTE: "FAIR" INDICATES FEW OR NO CLOUDS BELOW 12,000 FEET WITH NO
SIGNIFICANT WEATHER AND/OR OBSTRUCTIONS TO VISIBILITY.

* - STATION DOES NOT REPORT WEATHER SUCH AS PRECIPITATION OR FOG.

+ - STATION NOT QUALITY CONTROLLED BY THE NATIONAL WEATHER SERVICE.
    USE DATA WITH CAUTION...ESPECIALLY DEWPOINT AND RELATIVE
    HUMIDITY OBSERVATIONS.

INZ001>003-010>013-019-020-061800-
NORTHWEST INDIANA

CITY           SKY/WX    TMP DP  RH WIND       PRES   REMARKS
GARY /AIRPORT/ MOSUNNY   75 N/A N/A S6        30.17F HAZE

$$

LMZ046-743>745-061800-
SOUTHERN LAKE MICHIGAN

STATION/POSITION TIME  TEMP    WIND        PRES    WAVE
                       AIR SEA DIR/SP/G            HT
                 (UTC) (F)     (DEG/KT/KT) (MB)    (FT)
BURNS HARBOR     1600   60      10/  3/  4 1022.4S
MICHIGAN CITY    1600   66     310/  2/  5   N/A
5NW MICH CITY    1600   55 54   30/  4/  4   N/A     0

$$

INZ004-005-014>016-021>024-061800-
NORTH CENTRAL INDIANA

CITY           SKY/WX    TMP DP  RH WIND       PRES   REMARKS
ELKHART        MOSUNNY   66  57  72 SE6       30.21F
GOSHEN         MOSUNNY   69  61  75 SE7       30.20F HAZE
SOUTH BEND     MOSUNNY   71  60  68 VRB6      30.19F

$$

INZ006>009-017-018-025>027-061800-
NORTHEAST INDIANA

CITY           SKY/WX    TMP DP  RH WIND       PRES   REMARKS
ANGOLA *+      CLOUDY    61  59  94 S6        30.22F
FORT WAYNE     MOSUNNY   70  59  68 VRB3      30.22F

$$

INZ028-029-035-036-043>045-051>053-061800-
WEST CENTRAL INDIANA

CITY           SKY/WX    TMP DP  RH WIND       PRES   REMARKS
CRAWFORDSVL +  SUNNY     80  41  25 SW9       30.18F
GREENCASTLE +  SUNNY     79  46  31 S6        30.20F
LAFAYETTE      SUNNY     80  55  42 SW9       30.17F
TERRE HAUTE    SUNNY     82  54  37 S7        30.18F

$$

INZ030>032-037>040-046>048-054>057-064-065-061800-
CENTRAL INDIANA

CITY           SKY/WX    TMP DP  RH WIND       PRES   REMARKS
GREENWOOD *+   MOSUNNY   82  50  32 CALM      30.20F
INDIANAPOLIS   MOSUNNY   82  53  36 VRB5      30.18F
-EAGLE CREEK   SUNNY     79  53  40 NW7       30.19F
KOKOMO *+      MOSUNNY   79  61  53 CALM      30.19F
MT COMFORT *+  SUNNY     82  32  16 S6        30.20F
SHELBYVILLE    PTSUNNY   84  54  35 NW8       30.19F

$$

INZ033-034-041-042-049-050-058-059-061800-
EAST CENTRAL INDIANA

CITY           SKY/WX    TMP DP  RH WIND       PRES   REMARKS
MUNCIE         MOSUNNY   80  54  40 W6        30.20F

$$

INZ060-061-067>069-081>083-085>088-061800-
SOUTHWEST INDIANA

CITY           SKY/WX    TMP DP  RH WIND       PRES   REMARKS
EVANSVILLE     SUNNY     82  54  37 SE6       30.18F
HUNTINGBURG *+ PTSUNNY   81  54  39 CALM      30.19F

$$

INZ062-063-066-070>080-084-089>092-061800-
SOUTH CENTRAL AND SOUTHEAST INDIANA

CITY           SKY/WX    TMP DP  RH WIND       PRES   REMARKS
BLOOMINGTON    PTSUNNY   83  53  35 S12       30.20F
MADISON *+     SUNNY     82  46  28 S3        30.22F
SEYMOUR +      SUNNY     84  57  39 SW5       30.19F

$$




USA.gov is the U.S. government's official web portal to all federal, state and local government web resources and services.